Location: Columbia
(38.9520°N, 92.3340°W)
Time: 14:34:18
(UTC-05:00)

Cosmos 1603 - Visible Passes

Search period start: 17 September 2014 00:00
Search period end: 27 September 2014 00:00
Orbit: 830 x 862 km, 71.0° (Epoch: 16 September)

Date Brightness Start Highest point End Pass type
(mag) Time Alt. Az. Time Alt. Az. Time Alt. Az.
17 Sep 4.0 04:24:24 55° SSE 04:25:14 62° ESE 04:30:52 10° NNE visible
17 Sep 5.1 06:06:20 12° W 06:09:50 20° NW 06:13:57 10° N visible
18 Sep 4.0 04:11:30 60° ESE 04:11:30 60° ESE 04:17:03 10° NNE visible
18 Sep 5.1 05:53:26 16° W 05:55:59 20° NW 06:00:11 10° N visible
19 Sep 4.4 03:58:32 51° ENE 03:58:32 51° ENE 04:03:13 10° NNE visible
19 Sep 5.1 05:40:28 19° WNW 05:42:09 21° NW 05:46:25 10° N visible
20 Sep 4.8 03:45:30 41° NE 03:45:30 41° NE 03:49:23 10° NNE visible
20 Sep 5.0 05:27:25 21° WNW 05:28:19 22° NW 05:32:39 10° N visible
21 Sep 5.2 03:32:25 32° NE 03:32:25 32° NE 03:35:34 10° NNE visible
21 Sep 5.0 05:14:20 22° WNW 05:14:29 22° NW 05:18:52 10° N visible
22 Sep 5.6 03:19:16 26° NE 03:19:16 26° NE 03:21:44 10° NNE visible
22 Sep 5.1 05:01:11 22° NW 05:01:11 22° NW 05:05:06 10° N visible
23 Sep 5.9 03:06:05 21° NE 03:06:05 21° NE 03:07:54 10° NNE visible
23 Sep 5.2 04:48:00 22° NW 04:48:00 22° NW 04:51:20 10° N visible
24 Sep 6.2 02:52:52 17° NE 02:52:52 17° NE 02:54:04 10° NNE visible
24 Sep 5.4 04:34:47 21° NNW 04:34:47 21° NNW 04:37:33 10° N visible
25 Sep 6.4 02:39:37 13° NE 02:39:37 13° NE 02:40:15 10° NE visible
25 Sep 5.6 04:21:31 19° NNW 04:21:31 19° NNW 04:23:47 10° N visible
26 Sep 6.6 02:26:19 10° NE 02:26:19 10° NE 02:26:25 10° NE visible
26 Sep 5.8 04:08:14 17° NNW 04:08:14 17° NNW 04:10:00 10° N visible
